DW7210 Weather Reports


time (UTC)temp
F
wind
direction
speed
knots
gust
knots
rain 1hr
in
rain 24hr
in
rain mn
in
humidity
%
barometer
mb
20260507090417 57 0.0 0.0 0.00 0.00 0.00 24 1017.4
20260507085417 58 0.0 0.0 0.00 0.00 0.00 23 1017.5
20260507084417 59 0.0 0.0 0.00 0.00 0.00 22 1017.5
20260507083436 59 0.0 0.0 0.00 0.00 0.00 22 1017.5
20260507082416 59 0.0 0.0 0.00 0.00 0.00 22 1017.6
20260507081417 60 0.0 0.0 0.00 0.00 0.00 21 1017.6
20260507080416 62 0.0 0.0 0.00 0.00 0.00 20 1018.0
20260507075417 62 0.0 0.0 0.00 0.00 0.00 19 1017.9
20260507074437 62 0.0 0.0 0.00 0.00 0.00 19 1018.0
20260507073417 63 45 1.7 2.6 0.00 0.00 0.00 18 1018.3
20260507072416 63 23 0.9 2.6 0.00 0.00 0.00 18 1018.4
20260507071417 63 23 0.9 2.6 0.00 0.00 0.00 18 1018.1
20260507070437 63 45 2.6 2.6 0.00 0.00 0.00 17 1018.1
20260507065416 62 23 1.7 3.5 0.00 0.00 0.00 17 1018.0
20260507064416 62 0.0 0.0 0.00 0.00 0.00 16 1017.9
20260507063436 63 0.0 0.0 0.00 0.00 0.00 16 1017.9
20260507062416 63 0.0 0.0 0.00 0.00 0.00 16 1017.9
20260507061417 64 0.0 0.0 0.00 0.00 0.00 15 1018.0
20260507060417 64 23 0.9 3.5 0.00 0.00 0.00 15 1017.7
20260507055417 64 45 1.7 2.6 0.00 0.00 0.00 16 1017.6
20260507054417 64 0.0 0.0 0.00 0.00 0.00 16 1017.2
20260507053417 65 0 1.7 2.6 0.00 0.00 0.00 15 1017.6
20260507052417 65 0.0 0.0 0.00 0.00 0.00 15 1017.5
20260507051417 65 0.0 0.0 0.00 0.00 0.00 15 1016.8
20260507050417 65 0.0 0.0 0.00 0.00 0.00 15 1017.0
20260507045417 65 0.0 0.0 0.00 0.00 0.00 15 1016.9
20260507044417 65 0.0 0.0 0.00 0.00 0.00 16 1016.8
20260507043417 65 0.0 0.0 0.00 0.00 0.00 16 1016.8
20260507042437 66 0.0 0.0 0.00 0.00 0.00 16 1016.7
20260507041417 66 0.0 0.9 0.00 0.00 0.00 16 1016.6
20260507040457 66 0.0 0.0 0.00 0.00 0.00 17 1016.5
20260507035417 66 23 2.6 4.3 0.00 0.00 0.00 17 1016.4
20260507034417 67 0.0 0.0 0.00 0.00 0.00 17 1016.4
20260507033417 67 0.0 0.0 0.00 0.00 0.00 18 1016.2
20260507032417 67 0.0 0.0 0.00 0.00 0.00 18 1016.1
20260507031417 68 0.0 0.0 0.00 0.00 0.00 18 1015.7
20260507030417 68 45 0.9 3.5 0.00 0.00 0.00 18 1015.9
20260507025417 68 0.0 0.0 0.00 0.00 0.00 18 1015.7
20260507024417 69 0.0 0.0 0.00 0.00 0.00 18 1015.4
20260507023437 69 0.0 0.0 0.00 0.00 0.00 17 1015.3
20260507022437 70 0.0 2.6 0.00 0.00 0.00 17 1015.2
20260507021417 71 315 0.9 2.6 0.00 0.00 0.00 17 1015.0
20260507020416 71 315 2.6 3.5 0.00 0.00 0.00 17 1014.9
20260507015417 72 0.0 0.0 0.00 0.00 0.00 17 1014.8
20260507014417 72 315 3.5 5.2 0.00 0.00 0.00 17 1014.3
20260507013417 73 315 2.6 5.2 0.00 0.00 0.00 16 1014.6
20260507012417 73 293 4.3 7.0 0.00 0.00 0.00 16 1014.6
20260507011437 74 315 7.8 9.6 0.00 0.00 0.00 16 1014.1
20260507010417 75 315 1.7 2.6 0.00 0.00 0.00 16 1014.4
20260507005417 74 293 3.5 6.1 0.00 0.00 0.00 16 1014.0
20260507004416 75 293 8.7 10.4 0.00 0.00 0.00 15 1013.9
20260507003417 75 315 4.3 7.0 0.00 0.00 0.00 15 1014.0
20260507002417 75 293 5.2 8.7 0.00 0.00 0.00 16 1014.1
20260507001417 75 293 6.1 10.4 0.00 0.00 0.00 16 1014.0
20260507000417 75 270 1.7 4.3 0.00 0.00 0.00 16 1014.0
20260506235436 76 293 4.3 7.8 0.00 0.00 0.00 16 1014.3
20260506234416 76 293 8.7 13.0 0.00 0.00 0.00 16 1014.1
20260506233417 76 293 5.2 8.7 0.00 0.00 0.00 16 1014.2
20260506232417 76 315 4.3 9.6 0.00 0.00 0.00 16 1014.2
20260506231417 75 315 5.2 9.6 0.00 0.00 0.00 16 1014.0
20260506230416 76 293 3.5 15.6 0.00 0.00 0.00 16 1013.9
20260506225416 77 293 4.3 6.1 0.00 0.00 0.00 15 1014.2
20260506224417 76 248 5.2 8.7 0.00 0.00 0.00 16 1014.3
20260506223416 75 315 4.3 7.8 0.00 0.00 0.00 16 1014.4
20260506222417 76 270 0.9 4.3 0.00 0.00 0.00 16 1014.4
20260506221416 75 293 4.3 7.0 0.00 0.00 0.00 16 1014.6
20260506220437 77 225 4.3 7.8 0.00 0.00 0.00 16 1014.8
20260506215416 76 248 4.3 8.7 0.00 0.00 0.00 16 1014.9
20260506214416 74 315 7.8 13.0 0.00 0.00 0.00 16 1014.9
20260506213416 75 293 5.2 9.6 0.00 0.00 0.00 16 1015.1
20260506212416 75 248 4.3 8.7 0.00 0.00 0.00 16 1015.3
20260506211416 75 270 4.3 7.8 0.00 0.00 0.00 17 1015.4
20260506210416 75 315 7.0 13.0 0.00 0.00 0.00 16 1015.6
20260506205416 75 315 6.1 11.3 0.00 0.00 0.00 17 1015.7
20260506204417 75 225 3.5 6.1 0.00 0.00 0.00 18 1015.8
20260506203416 74 293 3.5 6.1 0.00 0.00 0.00 19 1015.8
20260506202416 74 293 7.0 9.6 0.00 0.00 0.00 18 1016.0
20260506201417 74 270 6.1 13.9 0.00 0.00 0.00 18 1016.0
20260506200416 74 270 3.5 6.1 0.00 0.00 0.00 19 1016.2
20260506195416 73 293 6.1 10.4 0.00 0.00 0.00 19 1016.3
20260506194416 73 270 4.3 7.8 0.00 0.00 0.00 19 1016.1
20260506193417 72 293 3.5 6.1 0.00 0.00 0.00 20 1015.8
20260506192417 73 225 2.6 3.5 0.00 0.00 0.00 21 1016.2
20260506191417 73 293 5.2 11.3 0.00 0.00 0.00 19 1016.7
20260506190437 71 248 3.5 12.2 0.00 0.00 0.00 20 1016.4
20260506185416 72 293 6.1 11.3 0.00 0.00 0.00 20 1016.5
20260506184416 72 225 4.3 11.3 0.00 0.00 0.00 22 1016.9
20260506183437 71 270 2.6 5.2 0.00 0.00 0.00 22 1017.1
20260506182416 72 225 4.3 9.6 0.00 0.00 0.00 21 1017.1
20260506181417 71 225 6.1 9.6 0.00 0.00 0.00 23 1017.2
20260506180416 70 315 3.5 5.2 0.00 0.00 0.00 24 1017.3
20260506175416 70 293 4.3 7.8 0.00 0.00 0.00 22 1017.1
20260506174417 70 248 5.2 7.8 0.00 0.00 0.00 22 1017.5
20260506173416 70 293 3.5 5.2 0.00 0.00 0.00 25 1017.7
20260506172416 69 293 1.7 3.5 0.00 0.00 0.00 26 1017.3
20260506171416 69 315 5.2 11.3 0.00 0.00 0.00 27 1017.7
20260506170416 68 293 5.2 11.3 0.00 0.00 0.00 27 1017.7
20260506165416 67 315 7.8 9.6 0.00 0.00 0.00 28 1017.5
20260506164417 66 293 1.7 5.2 0.00 0.00 0.00 31 1017.6
20260506163417 66 315 2.6 5.2 0.00 0.00 0.00 32 1017.6
20260506162416 65 293 5.2 8.7 0.00 0.00 0.00 32 1017.3
20260506161416 66 315 8.7 11.3 0.00 0.00 0.00 32 1017.4
20260506160436 65 248 1.7 4.3 0.00 0.00 0.00 34 1017.5
20260506155457 65 293 5.2 7.0 0.00 0.00 0.00 33 1017.6
20260506154436 64 248 3.5 6.1 0.00 0.00 0.00 35 1017.6
20260506153416 64 315 5.2 8.7 0.00 0.00 0.00 35 1017.6
20260506152416 64 0.0 0.0 0.00 0.00 0.00 36 1017.2
20260506151416 63 315 4.3 7.0 0.00 0.00 0.00 35 1017.4
20260506150416 63 315 5.2 7.0 0.00 0.00 0.00 35 1017.4
20260506145416 62 315 2.6 5.2 0.00 0.00 0.00 36 1017.1
20260506144416 62 315 2.6 5.2 0.00 0.00 0.00 37 1017.5
20260506143416 62 293 1.7 5.2 0.00 0.00 0.00 38 1017.5
20260506142416 61 0.0 0.0 0.00 0.00 0.00 40 1017.1
20260506141417 61 0.0 0.0 0.00 0.00 0.00 41 1017.2
20260506140416 60 293 2.6 4.3 0.00 0.00 0.00 40 1017.1
20260506135416 60 23 1.7 3.5 0.00 0.00 0.00 41 1016.9
20260506134436 59 0.0 0.0 0.00 0.00 0.00 43 1016.9
20260506133416 58 0.0 0.0 0.00 0.00 0.00 44 1016.7
20260506132416 57 0.0 0.0 0.00 0.00 0.00 45 1016.3
20260506131416 55 23 1.7 2.6 0.00 0.00 0.00 47 1016.0
20260506130416 55 0.0 0.9 0.00 0.00 0.00 47 1015.8
20260506125436 55 0.0 0.0 0.00 0.00 0.00 47 1015.7
20260506124416 55 0.0 1.7 0.00 0.00 0.00 47 1015.9
20260506123416 55 23 0.9 2.6 0.00 0.00 0.00 47 1015.7
20260506122416 55 0.0 0.9 0.00 0.00 0.00 46 1015.6
20260506121436 56 0.0 0.0 0.00 0.00 0.00 46 1015.4
20260506120437 56 0.0 0.0 0.00 0.00 0.00 45 1015.3
20260506115416 56 23 0.9 3.5 0.00 0.00 0.00 45 1015.3
20260506114416 56 23 2.6 3.5 0.00 0.00 0.00 46 1015.1
20260506113416 56 23 2.6 4.3 0.00 0.00 0.00 46 1015.2
20260506112436 56 0.0 0.9 0.00 0.00 0.00 45 1015.0
20260506111416 56 338 0.9 2.6 0.00 0.00 0.00 45 1014.9
20260506110436 56 0.0 2.6 0.00 0.00 0.00 45 1014.7
20260506105417 57 0 1.7 3.5 0.00 0.00 0.00 44 1014.6
20260506104416 57 0 0.9 2.6 0.00 0.00 0.00 44 1014.5
20260506103436 57 45 2.6 4.3 0.00 0.00 0.00 43 1014.5
20260506102416 57 0 1.7 3.5 0.00 0.00 0.00 43 1014.4
20260506101416 57 45 0.9 2.6 0.00 0.00 0.00 43 1014.6
20260506100416 58 0 2.6 4.3 0.00 0.00 0.00 42 1014.6
20260506095416 58 23 0.9 2.6 0.00 0.00 0.00 42 1014.6
20260506094436 58 23 1.7 2.6 0.00 0.00 0.00 41 1014.4
20260506093416 59 0 0.9 2.6 0.00 0.00 0.00 40 1014.4
20260506092416 60 315 4.3 7.8 0.00 0.00 0.00 39 1014.6
20260506091416 60 293 3.5 4.3 0.00 0.00 0.00 38 1014.1